Location: ????????
(55.3155°N, 39.2900°E)
Time: 18:41:55
(UTC+00:00)

ACS3 Solar Sail - Pass Details

Date: 17 November 2025
Orbit: 889 x 1003 km, 97.3° (Epoch: 06 December)

Event Time Altitude Azimuth Distance (km) Brightness Sun altitude
Rises 02:43:44 0° 10° (N) 3,554 4.8 -18.9°
Reaches altitude 10° 02:46:34 10° 357° (N) 2,625 4.0 -18.5°
Enters shadow 02:50:57 24° 308° (NW) 1,835 2.8 -17.9°
